DW1973 Weather Reports


Display with metric or nautical units.
time (UTC)temp
F
wind
direction
speed
MPH
gust
MPH
rain 1hr
in
rain 24hr
in
rain mn
in
humidity
%
barometer
mb
20260510164944 61 268 2.0 7.0 0.00 0.00 0.00 37 1019.3
20260510164414 61 330 2.0 5.0 0.00 0.00 0.00 36 1019.3
20260510163952 61 309 3.0 8.0 0.00 0.00 0.00 35 1019.3
20260510163420 61 306 3.0 8.0 0.00 0.00 0.00 35 1019.2
20260510162933 61 329 3.0 9.0 0.00 0.00 0.00 36 1019.0
20260510162440 60 214 3.0 9.0 0.00 0.00 0.00 35 1019.0
20260510161927 61 235 3.0 8.0 0.00 0.00 0.00 35 1019.0
20260510161439 61 219 3.0 6.0 0.00 0.00 0.00 33 1018.8
20260510160948 61 234 3.0 6.0 0.00 0.00 0.00 40 1018.8
20260510160415 61 226 1.0 4.0 0.00 0.00 0.00 37 1018.8
20260510155919 60 219 1.0 3.0 0.00 0.00 0.00 40 1018.6
20260510155427 60 221 1.0 3.0 0.00 0.00 0.00 39 1018.6
20260510154935 60 222 1.0 6.0 0.00 0.00 0.00 38 1018.7
20260510154426 61 167 3.0 6.0 0.00 0.00 0.00 37 1018.7
20260510153915 61 78 1.0 3.0 0.00 0.00 0.00 38 1018.6
20260510153422 61 113 0.0 2.0 0.00 0.00 0.00 39 1018.6
20260510152914 60 98 1.0 6.0 0.00 0.00 0.00 39 1018.7
20260510152422 59 98 1.0 6.0 0.00 0.00 0.00 38 1018.7
20260510151928 59 146 1.0 3.0 0.00 0.00 0.00 39 1018.7
20260510151421 59 182 1.0 3.0 0.00 0.00 0.00 39 1018.8
20260510150928 59 138 0.0 3.0 0.00 0.00 0.00 41 1018.8
20260510150416 58 136 1.0 3.0 0.00 0.00 0.00 41 1018.8
20260510145939 57 139 1.0 3.0 0.00 0.00 0.00 40 1018.8
20260510145426 57 192 1.0 6.0 0.00 0.00 0.00 42 1018.8
20260510144915 57 192 4.0 6.0 0.00 0.00 0.00 40 1018.8
20260510144428 57 166 2.0 6.0 0.00 0.00 0.00 41 1018.7
20260510143938 57 209 4.0 5.0 0.00 0.00 0.00 40 1018.8
20260510143447 58 119 2.0 6.0 0.00 0.00 0.00 40 1018.6
20260510142938 58 100 1.0 4.0 0.00 0.00 0.00 43 1018.6
20260510142445 58 98 0.0 4.0 0.00 0.00 0.00 44 1018.6
20260510141932 58 121 2.0 4.0 0.00 0.00 0.00 41 1018.6
20260510141425 57 121 0.0 3.0 0.00 0.00 0.00 42 1018.5
20260510140933 56 121 2.0 7.0 0.00 0.00 0.00 41 1018.4
20260510140423 56 122 2.0 7.0 0.00 0.00 0.00 40 1018.4
20260510135929 57 184 2.0 6.0 0.00 0.00 0.00 41 1018.4
20260510135416 57 90 1.0 3.0 0.00 0.00 0.00 43 1018.4
20260510134924 56 71 0.0 6.0 0.00 0.00 0.00 43 1018.4
20260510134414 56 114 2.0 6.0 0.00 0.00 0.00 43 1018.3
20260510133923 56 117 1.0 4.0 0.00 0.00 0.00 44 1018.2
20260510133429 56 95 1.0 6.0 0.00 0.00 0.00 46 1018.2
20260510132939 55 121 0.0 6.0 0.00 0.00 0.00 45 1018.1
20260510132426 54 35 1.0 4.0 0.00 0.00 0.00 46 1018.1
20260510131932 54 59 1.0 4.0 0.00 0.00 0.00 47 1018.0
20260510131442 53 133 0.0 4.0 0.00 0.00 0.00 49 1018.0
20260510130950 52 96 1.0 5.0 0.00 0.00 0.00 50 1017.9
20260510130415 52 38 0.0 5.0 0.00 0.00 0.00 52 1017.8
20260510125918 52 34 2.0 6.0 0.00 0.00 0.00 54 1017.9
20260510125426 51 28 2.0 6.0 0.00 0.00 0.00 55 1017.9
20260510124914 50 10 1.0 3.0 0.00 0.00 0.00 58 1017.9
20260510124426 49 10 1.0 5.0 0.00 0.00 0.00 60 1017.9
20260510123931 49 13 2.0 5.0 0.00 0.00 0.00 61 1017.7
20260510123419 47 18 1.0 2.0 0.00 0.00 0.00 65 1017.6
20260510122932 46 15 1.0 2.0 0.00 0.00 0.00 69 1017.5
20260510122418 46 10 0.0 0.0 0.00 0.00 0.00 72 1017.5
20260510121926 45 10 0.0 0.0 0.00 0.00 0.00 73 1017.4
20260510121439 45 11 0.0 2.0 0.00 0.00 0.00 73 1017.2
20260510120926 44 13 1.0 2.0 0.00 0.00 0.00 74 1017.1
20260510120417 44 12 0.0 1.0 0.00 0.00 0.00 75 1017.2
20260510115940 43 11 0.0 1.0 0.00 0.00 0.00 75 1017.1
20260510115426 43 13 0.0 2.0 0.00 0.00 0.00 75 1017.0
20260510114914 43 13 1.0 2.0 0.00 0.00 0.00 76 1017.1
20260510114423 42 15 0.0 0.0 0.00 0.00 0.00 76 1016.9
20260510113914 42 14 0.0 0.0 0.00 0.00 0.00 76 1016.9
20260510113423 41 15 0.0 0.0 0.00 0.00 0.00 77 1016.8
20260510112933 41 15 0.0 0.0 0.00 0.00 0.00 77 1016.7
20260510112424 41 15 0.0 0.0 0.00 0.00 0.00 77 1016.6
20260510111930 41 15 0.0 0.0 0.00 0.00 0.00 76 1016.5
20260510111421 40 16 0.0 0.0 0.00 0.00 0.00 76 1016.5
20260510110929 40 20 0.0 0.0 0.00 0.00 0.00 76 1016.5
20260510110417 40 20 0.0 0.0 0.00 0.00 0.00 75 1016.4
20260510105941 40 18 0.0 0.0 0.00 0.00 0.00 75 1016.3
20260510105429 40 17 0.0 0.0 0.00 0.00 0.00 74 1016.2
20260510104917 40 16 0.0 0.0 0.00 0.00 0.00 74 1016.0
20260510104430 41 15 0.0 0.0 0.00 0.00 0.00 73 1015.9
20260510103916 41 15 0.0 0.0 0.00 0.00 0.00 73 1015.9
20260510103424 41 17 0.0 0.0 0.00 0.00 0.00 72 1015.8
20260510102935 41 17 0.0 0.0 0.00 0.00 0.00 71 1015.8
20260510102442 42 15 0.0 0.0 0.00 0.00 0.00 70 1015.8
20260510101930 42 15 0.0 0.0 0.00 0.00 0.00 70 1015.8
20260510101449 42 15 0.0 0.0 0.00 0.00 0.00 70 1015.6
20260510100916 42 15 0.0 0.0 0.00 0.00 0.00 69 1015.6
20260510100424 42 15 0.0 0.0 0.00 0.00 0.00 69 1015.6
20260510095916 43 15 0.0 0.0 0.00 0.00 0.00 68 1015.5
20260510095420 43 15 0.0 0.0 0.00 0.00 0.00 67 1015.3
20260510094930 43 15 0.0 0.0 0.00 0.00 0.00 67 1015.3
20260510094423 43 15 0.0 0.0 0.00 0.00 0.00 67 1015.4
20260510093929 44 15 0.0 0.0 0.00 0.00 0.00 66 1015.3
20260510093418 44 15 0.0 0.0 0.00 0.00 0.00 66 1015.2
20260510092929 44 15 0.0 0.0 0.00 0.00 0.00 65 1015.2
20260510092419 44 15 0.0 0.0 0.00 0.00 0.00 65 1015.1
20260510091926 45 15 0.0 0.0 0.00 0.00 0.00 64 1015.1
20260510091417 45 15 0.0 0.0 0.00 0.00 0.00 63 1015.2
20260510090955 46 15 0.0 0.0 0.00 0.00 0.00 62 1015.2
20260510090442 46 15 0.0 0.0 0.00 0.00 0.00 61 1015.2
20260510085929 46 14 0.0 1.0 0.00 0.00 0.00 61 1015.2
20260510085418 46 14 0.0 1.0 0.00 0.00 0.00 61 1015.2
20260510084924 47 15 0.0 1.0 0.00 0.00 0.00 60 1015.2
20260510084453 47 14 0.0 1.0 0.00 0.00 0.00 60 1015.1
20260510083940 47 14 0.0 1.0 0.00 0.00 0.00 59 1015.2
20260510083426 47 13 0.0 2.0 0.00 0.00 0.00 59 1015.0
20260510082919 47 13 0.0 2.0 0.00 0.00 0.00 59 1015.1
20260510082427 48 15 0.0 3.0 0.00 0.00 0.00 59 1015.0
20260510081916 48 15 1.0 3.0 0.00 0.00 0.00 58 1014.9
20260510081429 48 360 0.0 4.0 0.00 0.00 0.00 58 1014.7
20260510080917 48 13 1.0 5.0 0.00 0.00 0.00 58 1014.7
20260510080425 48 13 1.0 5.0 0.00 0.00 0.00 58 1014.7
20260510075930 48 42 1.0 5.0 0.00 0.00 0.00 58 1014.6
20260510075419 49 5 2.0 4.0 0.00 0.00 0.00 58 1014.4
20260510074923 49 15 0.0 5.0 0.00 0.00 0.00 58 1014.3
20260510074416 49 5 2.0 5.0 0.00 0.00 0.00 59 1014.3
20260510073955 49 11 2.0 9.0 0.00 0.00 0.00 59 1014.3
20260510073441 49 11 1.0 9.0 0.00 0.00 0.00 61 1014.3
20260510072928 49 11 2.0 4.0 0.00 0.00 0.00 63 1014.1
20260510072436 48 16 2.0 4.0 0.00 0.00 0.00 65 1014.0
20260510071925 48 5 1.0 4.0 0.00 0.00 0.00 67 1013.8
20260510071416 47 9 2.0 6.0 0.00 0.00 0.00 71 1013.8
20260510070925 47 13 1.0 6.0 0.00 0.00 0.00 72 1013.7
20260510070415 46 11 1.0 3.0 0.00 0.00 0.00 75 1013.5
20260510065926 46 15 1.0 2.0 0.00 0.00 0.00 76 1013.4
20260510065415 45 15 1.0 2.0 0.00 0.00 0.00 77 1013.3
20260510064920 45 15 0.0 2.0 0.00 0.00 0.00 77 1013.3
20260510064450 45 15 1.0 2.0 0.00 0.00 0.00 77 1013.2
20260510063919 45 16 0.0 0.0 0.00 0.00 0.00 77 1013.2
20260510063430 46 17 0.0 0.0 0.00 0.00 0.00 77 1013.1
20260510062950 46 16 0.0 0.0 0.00 0.00 0.00 76 1013.1
20260510062416 46 16 0.0 0.0 0.00 0.00 0.00 76 1012.9
20260510061952 47 15 0.0 0.0 0.00 0.00 0.00 76 1012.7
20260510061423 47 15 0.0 0.0 0.00 0.00 0.00 75 1012.8
20260510060934 47 15 0.0 0.0 0.00 0.00 0.00 74 1012.8
20260510060421 47 15 0.0 0.0 0.00 0.00 0.00 74 1012.8
20260510055931 47 15 0.0 0.0 0.00 0.00 0.00 73 1012.7
20260510055419 47 15 0.0 0.0 0.00 0.00 0.00 72 1012.7
20260510054923 47 15 0.0 0.0 0.00 0.00 0.00 72 1012.7
20260510054414 47 16 0.0 0.0 0.00 0.00 0.00 71 1012.6
20260510053923 47 15 0.0 0.0 0.00 0.00 0.00 71 1012.6
20260510053430 47 15 0.0 0.0 0.00 0.00 0.00 70 1012.5
20260510052923 48 15 0.0 0.0 0.00 0.00 0.00 70 1012.4
20260510052429 48 14 0.0 0.0 0.00 0.00 0.00 70 1012.4
20260510051916 48 14 0.0 0.0 0.00 0.00 0.00 69 1012.3
20260510051447 48 15 0.0 0.0 0.00 0.00 0.00 69 1012.3
20260510050934 48 14 0.0 0.0 0.00 0.00 0.00 69 1012.2
20260510050422 49 15 0.0 0.0 0.00 0.00 0.00 69 1012.1
20260510045927 49 14 0.0 0.0 0.00 0.00 0.00 68 1012.1
20260510045415 50 14 0.0 0.0 0.00 0.00 0.00 67 1011.9
20260510044922 50 13 0.0 0.0 0.00 0.00 0.00 66 1011.8
20260510044428 50 13 0.0 0.0 0.00 0.00 0.00 65 1011.7
20260510043915 50 13 0.0 0.0 0.00 0.00 0.00 65 1011.7
20260510043424 51 12 0.0 0.0 0.00 0.00 0.00 64 1011.6
20260510042932 51 11 0.0 0.0 0.00 0.00 0.00 64 1011.4
20260510042440 51 11 0.0 0.0 0.00 0.00 0.00 63 1011.4
20260510041947 51 11 0.0 0.0 0.00 0.00 0.00 62 1011.3
20260510041435 52 11 0.0 0.0 0.00 0.00 0.00 62 1011.4
20260510040944 52 11 0.0 0.0 0.00 0.00 0.00 62 1011.3
20260510040432 52 11 0.0 0.0 0.00 0.00 0.00 61 1011.2
20260510035942 52 11 0.0 0.0 0.00 0.00 0.00 60 1011.1
20260510035426 52 11 0.0 0.0 0.00 0.00 0.00 59 1011.1
20260510034916 52 11 0.0 0.0 0.00 0.00 0.00 59 1010.9
20260510034427 52 11 0.0 0.0 0.00 0.00 0.00 59 1010.9
20260510033936 53 11 0.0 0.0 0.00 0.00 0.00 59 1010.8
20260510033443 53 11 0.0 0.0 0.00 0.00 0.00 58 1010.8
20260510032953 54 11 0.0 0.0 0.00 0.00 0.00 58 1010.8
20260510032440 54 11 0.0 0.0 0.00 0.00 0.00 57 1010.6
20260510031948 54 11 0.0 0.0 0.00 0.00 0.00 56 1010.6
20260510031435 55 11 0.0 0.0 0.00 0.00 0.00 55 1010.6
20260510030942 55 14 0.0 0.0 0.00 0.00 0.00 55 1010.6
20260510030447 55 10 0.0 0.0 0.00 0.00 0.00 54 1010.6
20260510025937 56 10 0.0 1.0 0.00 0.00 0.00 53 1010.5
20260510025452 56 10 0.0 1.0 0.00 0.00 0.00 53 1010.5
20260510024939 56 10 0.0 1.0 0.00 0.00 0.00 52 1010.3
20260510024427 56 10 0.0 1.0 0.00 0.00 0.00 52 1010.2
20260510023934 57 10 0.0 1.0 0.00 0.00 0.00 51 1010.2
20260510023421 57 10 0.0 1.0 0.00 0.00 0.00 51 1010.0
20260510022932 57 10 0.0 2.0 0.00 0.00 0.00 51 1009.9
20260510022421 57 10 0.0 3.0 0.00 0.00 0.00 50 1009.8
20260510021930 58 9 0.0 3.0 0.00 0.00 0.00 50 1009.6
20260510021419 58 11 1.0 3.0 0.00 0.00 0.00 49 1009.5
20260510020923 58 10 1.0 3.0 0.00 0.00 0.00 49 1009.1
20260510020432 59 11 1.0 2.0 0.00 0.00 0.00 49 1009.1
20260510015920 59 13 0.0 2.0 0.00 0.00 0.00 48 1009.0
20260510015428 59 15 1.0 3.0 0.00 0.00 0.00 47 1009.0
20260510014918 60 12 1.0 5.0 0.00 0.00 0.00 47 1008.8
20260510014428 61 11 2.0 6.0 0.00 0.00 0.00 46 1008.7
20260510013917 61 12 2.0 7.0 0.00 0.00 0.00 45 1008.5
20260510013426 62 22 1.0 4.0 0.00 0.00 0.00 44 1008.3
20260510012919 64 11 1.0 9.0 0.00 0.00 0.00 42 1008.2
20260510012428 65 12 2.0 9.0 0.00 0.00 0.00 41 1008.0
20260510011934 66 28 1.0 4.0 0.00 0.00 0.00 41 1007.8
20260510011447 66 32 2.0 4.0 0.00 0.00 0.00 41 1007.6
20260510010915 66 34 2.0 5.0 0.00 0.00 0.00 41 1007.5
20260510010420 67 360 2.0 6.0 0.00 0.00 0.00 40 1007.4
20260510005930 67 42 2.0 6.0 0.00 0.00 0.00 40 1007.4
20260510005416 67 31 2.0 5.0 0.00 0.00 0.00 39 1007.2
20260510004925 68 26 2.0 5.0 0.00 0.00 0.00 39 1007.0
20260510004415 68 35 1.0 5.0 0.00 0.00 0.00 38 1006.9
20260510003921 68 150 2.0 5.0 0.00 0.00 0.00 37 1006.7
20260510003433 69 193 2.0 5.0 0.00 0.00 0.00 37 1006.6
20260510002923 69 161 2.0 6.0 0.00 0.00 0.00 37 1006.5
20260510002430 69 142 4.0 6.0 0.00 0.00 0.00 36 1006.3
20260510001936 70 91 2.0 6.0 0.00 0.00 0.00 37 1006.3
20260510001454 70 360 3.0 6.0 0.00 0.00 0.00 37 1006.2
20260510000943 70 360 3.0 8.0 0.00 0.00 0.00 37 1006.0
20260510000426 70 360 4.0 9.0 0.00 0.00 0.00 37 1006.0
20260509235917 70 360 5.0 9.0 0.00 0.00 0.00 36 1006.0
20260509235427 71 268 3.0 13.0 0.00 0.00 0.00 35 1005.9
20260509234916 71 301 5.0 13.0 0.00 0.00 0.00 34 1005.9
20260509234445 71 304 2.0 10.0 0.00 0.00 0.00 35 1005.8
20260509233932 71 293 3.0 10.0 0.00 0.00 0.00 35 1005.8
20260509233423 71 305 5.0 9.0 0.00 0.00 0.00 33 1005.6
20260509232935 72 275 3.0 8.0 0.00 0.00 0.00 34 1005.6
20260509232424 72 264 3.0 6.0 0.00 0.00 0.00 36 1005.5
20260509231930 72 296 2.0 9.0 0.00 0.00 0.00 34 1005.5
20260509231423 72 275 4.0 9.0 0.00 0.00 0.00 33 1005.5
20260509230932 72 285 3.0 9.0 0.00 0.00 0.00 33 1005.3
20260509230418 72 282 5.0 10.0 0.00 0.00 0.00 32 1005.3
20260509225926 72 313 4.0 10.0 0.00 0.00 0.00 33 1005.2
20260509225435 72 293 4.0 10.0 0.00 0.00 0.00 32 1005.1
20260509224923 73 304 4.0 12.0 0.00 0.00 0.00 33 1005.1
20260509224434 73 300 5.0 12.0 0.00 0.00 0.00 32 1005.0
20260509223922 73 299 4.0 9.0 0.00 0.00 0.00 34 1004.8
20260509223431 73 281 5.0 10.0 0.00 0.00 0.00 32 1004.9
20260509222923 73 291 4.0 12.0 0.00 0.00 0.00 33 1004.8
20260509222432 73 311 3.0 11.0 0.00 0.00 0.00 33 1004.7
20260509221922 73 262 6.0 11.0 0.00 0.00 0.00 31 1004.7
20260509221434 74 269 3.0 8.0 0.00 0.00 0.00 32 1004.7
20260509220922 74 286 2.0 12.0 0.00 0.00 0.00 34 1004.6
20260509220433 74 283 5.0 12.0 0.00 0.00 0.00 32 1004.6
20260509215952 74 288 2.0 9.0 0.00 0.00 0.00 34 1004.5
20260509215417 74 274 5.0 10.0 0.00 0.00 0.00 33 1004.5
20260509214925 74 263 5.0 10.0 0.00 0.00 0.00 33 1004.4
20260509214434 73 293 4.0 17.0 0.00 0.00 0.00 34 1004.3
20260509213922 73 326 4.0 17.0 0.00 0.00 0.00 35 1004.3
20260509213428 74 269 7.0 14.0 0.00 0.00 0.00 31 1004.3
20260509212937 74 290 4.0 14.0 0.00 0.00 0.00 33 1004.0
20260509212425 74 272 5.0 14.0 0.00 0.00 0.00 34 1004.2
20260509211933 74 267 6.0 11.0 0.00 0.00 0.00 33 1004.1
20260509211426 74 273 4.0 14.0 0.00 0.00 0.00 33 1004.1
20260509210934 74 261 7.0 14.0 0.00 0.00 0.00 34 1004.2
20260509210443 74 194 4.0 9.0 0.00 0.00 0.00 35 1003.9
20260509205932 74 183 5.0 9.0 0.00 0.00 0.00 33 1003.9
20260509205419 74 217 4.0 10.0 0.00 0.00 0.00 36 1003.9
20260509204927 74 206 5.0 10.0 0.00 0.00 0.00 34 1003.9
20260509204415 73 360 3.0 10.0 0.00 0.00 0.00 36 1003.8
20260509203923 73 247 4.0 10.0 0.00 0.00 0.00 34 1003.9
20260509203432 73 266 5.0 9.0 0.00 0.00 0.00 33 1003.9
20260509202921 73 259 5.0 10.0 0.00 0.00 0.00 32 1003.9
20260509202429 73 360 3.0 10.0 0.00 0.00 0.00 34 1004.1
20260509201913 73 260 3.0 13.0 0.00 0.00 0.00 35 1004.0
20260509201424 73 240 5.0 13.0 0.00 0.00 0.00 34 1004.0
20260509200934 72 265 5.0 10.0 0.00 0.00 0.00 35 1004.0
20260509200421 72 239 5.0 11.0 0.00 0.00 0.00 35 1004.0
20260509195913 72 263 6.0 11.0 0.00 0.00 0.00 36 1004.1
20260509195449 72 316 3.0 8.0 0.00 0.00 0.00 37 1004.3
20260509194916 72 281 3.0 11.0 0.00 0.00 0.00 35 1004.1
20260509194423 72 292 6.0 11.0 0.00 0.00 0.00 34 1004.1
20260509193929 72 211 5.0 10.0 0.00 0.00 0.00 34 1004.1
20260509193437 72 190 4.0 10.0 0.00 0.00 0.00 35 1004.0
20260509192926 72 210 7.0 10.0 0.00 0.00 0.00 33 1003.9
20260509192414 72 232 4.0 9.0 0.00 0.00 0.00 34 1004.1
20260509191925 72 207 3.0 6.0 0.00 0.00 0.00 35 1004.2
20260509191435 72 248 3.0 10.0 0.00 0.00 0.00 33 1004.1
20260509190941 73 283 6.0 10.0 0.00 0.00 0.00 33 1004.1
20260509190427 73 301 7.0 11.0 0.00 0.00 0.00 32 1004.1
20260509185938 72 273 5.0 9.0 0.00 0.00 0.00 33 1004.1
20260509185449 72 276 5.0 10.0 0.00 0.00 0.00 32 1004.0
20260509184917 73 290 5.0 10.0 0.00 0.00 0.00 33 1003.9
20260509184429 72 207 3.0 8.0 0.00 0.00 0.00 34 1003.8
20260509183915 72 228 4.0 8.0 0.00 0.00 0.00 33 1004.0
20260509183453 72 325 5.0 15.0 0.00 0.00 0.00 34 1004.0
20260509182922 72 260 5.0 15.0 0.00 0.00 0.00 33 1004.1
20260509182430 73 246 5.0 12.0 0.00 0.00 0.00 36 1004.0
20260509181935 72 312 5.0 12.0 0.00 0.00 0.00 35 1003.7
20260509181427 72 288 4.0 12.0 0.00 0.00 0.00 35 1004.1
20260509180914 72 301 3.0 9.0 0.00 0.00 0.00 35 1003.8
20260509180422 72 282 3.0 10.0 0.00 0.00 0.00 35 1003.9
20260509175933 72 284 5.0 9.0 0.00 0.00 0.00 34 1004.1
20260509175436 72 292 5.0 11.0 0.00 0.00 0.00 34 1004.1
20260509174923 72 240 7.0 11.0 0.00 0.00 0.00 34 1004.0
20260509174415 71 225 6.0 11.0 0.00 0.00 0.00 36 1004.1
20260509173924 71 264 5.0 9.0 0.00 0.00 0.00 35 1003.9
20260509173413 71 261 4.0 12.0 0.00 0.00 0.00 37 1004.1
20260509172924 71 234 5.0 9.0 0.00 0.00 0.00 42 1004.1
20260509172415 71 271 3.0 7.0 0.00 0.00 0.00 48 1004.1
20260509171950 70 259 2.0 7.0 0.00 0.00 0.00 51 1004.1
20260509171418 70 257 3.0 9.0 0.00 0.00 0.00 50 1004.1
20260509170927 69 261 5.0 9.0 0.00 0.00 0.00 51 1004.2
20260509170416 69 277 2.0 5.0 0.00 0.00 0.00 55 1004.1
20260509165927 68 203 3.0 11.0 0.00 0.00 0.00 56 1004.2
20260509165413 68 209 6.0 11.0 0.00 0.00 0.00 56 1004.2